Wind_Speed
17 17 17 18 19 19 19 19 19 20 20 19 18 17 16 16 16 15 15 15 15 15 14 15 16 17 16 16 18 18 18 17 18 19 20 21 21 21 22 22 22 23 24 24
17 17 18 18 19 18 17 17 18 18 18 16 15 14 13 13 13 14 15 15 15 16 15 15 15 16 16 16 17 16 16 17 19 20 21 22 22 22 22 23 23 24 24 25
17 17 17 17 17 17 16 16 17 17 17 15 13 12 12 12 13 14 15 15 15 14 15 15 14 15 16 16 17 18 19 20 21 22 22 23 24 23 23 24 24 25 25 26
17 17 16 16 15 16 15 16 16 16 15 16 15 13 12 12 12 12 14 15 15 14 14 14 15 16 17 18 19 20 21 22 22 22 23 24 24 24 24 25 26 27 27 27
18 17 16 15 15 15 16 16 15 14 14 15 14 14 12 12 11 12 14 15 14 15 15 16 17 17 18 19 20 21 22 23 23 24 24 24 24 25 25 26 26 27 27 28
18 18 16 15 15 15 15 15 15 15 15 15 14 14 12 11 13 14 14 14 15 16 16 17 18 19 20 21 21 22 23 24 24 24 24 24 24 25 26 26 26 27 27 28
18 18 17 16 15 16 16 15 16 16 16 16 14 14 12 12 13 14 13 14 15 17 18 19 20 20 21 22 23 24 25 25 24 24 24 24 25 25 26 27 27 27 28 28
17 17 17 16 15 16 16 16 16 17 17 16 15 14 13 13 13 12 13 14 15 17 19 21 21 21 22 23 24 24 25 24 25 25 25 25 26 27 27 28 28 28 29 29
17 17 17 16 16 16 16 16 17 17 17 17 16 15 13 13 13 13 14 15 17 19 20 22 22 23 23 24 25 26 26 26 26 26 26 26 27 27 28 29 29 28 28 28
15 16 16 17 17 17 17 17 17 17 18 17 17 16 15 15 14 15 15 16 18 19 20 21 22 24 24 25 25 26 26 26 27 28 28 28 28 28 28 28 29 28 28 28
14 15 16 17 17 17 17 17 18 18 19 19 18 16 15 15 15 16 17 18 19 20 21 21 22 23 24 25 26 26 26 27 28 28 28 28 28 28 28 29 29 28 28 28
13 14 15 16 16 16 17 17 17 18 19 19 19 17 15 16 17 17 18 18 20 21 21 21 22 23 24 25 26 26 27 28 28 28 27 27 28 28 28 28 28 28 28 27
12 13 14 14 16 16 16 17 17 17 18 18 18 17 16 17 18 19 19 20 20 21 21 22 22 23 24 25 26 26 26 27 27 27 27 27 27 27 27 27 26 26 26 25
11 11 12 13 14 15 15 15 15 16 17 17 17 17 17 18 19 19 20 20 21 21 22 22 23 24 24 24 24 24 25 25 25 25 25 25 25 25 25 25 24 24 24 24
9 9 10 11 11 12 12 13 13 14 15 16 17 17 18 18 19 19 20 21 22 22 22 22 23 22 21 21 23 23 24 23 22 22 22 22 22 23 23 22 22 22 21 21
8 8 9 9 9 9 10 10 12 13 14 15 16 17 18 18 18 19 20 21 22 22 22 21 21 21 20 20 20 20 20 20 20 19 20 20 20 20 20 20 19 19 19 19
7 7 8 8 8 9 9 10 11 12 12 13 15 15 16 17 18 19 20 21 21 22 21 21 21 19 18 18 17 17 17 17 17 17 18 17 17 18 18 17 17 17 17 17
7 6 7 7 8 8 8 9 11 11 12 13 14 14 16 16 17 18 19 20 21 21 20 19 18 17 16 16 15 15 15 15 15 15 15 15 16 16 16 15 15 15 15 15
6 6 7 7 8 8 8 8 9 10 11 12 13 14 15 16 17 17 18 19 19 18 18 17 16 14 14 14 14 14 14 13 13 14 14 14 14 14 14 14 13 14 14 13
6 7 7 7 8 8 8 9 9 11 12 13 14 15 15 15 16 17 17 17 16 17 16 15 14 13 13 12 11 11 12 11 11 11 11 12 12 12 12 13 13 13 12 12
6 7 7 7 7 8 8 9 9 11 12 13 14 14 15 15 15 15 15 15 16 15 15 13 12 11 10 10 10 10 9 9 9 9 10 10 10 10 11 11 11 11 10 9
6 6 7 7 8 8 8 8 9 10 12 13 13 14 14 14 14 14 14 14 14 14 13 11 10 9 9 9 9 8 8 8 8 8 8 8 9 10 10 10 9 8 7 7
5 6 6 7 7 8 8 9 9 11 12 12 12 13 13 14 14 13 13 13 12 12 10 8 8 8 7 7 7 7 7 7 7 7 7 8 8 9 9 8 8 8 7 7
5 6 6 7 7 8 8 9 10 11 11 12 12 12 12 13 12 12 11 11 10 9 9 7 7 6 6 6 6 6 6 7 7 7 6 6 7 8 8 8 7 8 8 8
5 5 6 7 8 8 9 9 10 10 10 10 11 10 10 10 10 10 9 8 8 8 7 6 5 5 5 6 6 5 7 7 7 7 7 7 7 8 9 9 9 9 9 9
4 4 5 6 7 7 8 8 9 9 9 9 9 10 9 10 9 8 7 6 6 6 6 6 5 6 6 6 6 6 7 7 8 8 8 8 8 9 10 10 10 10 10 10
Wind_Direction
207 208 208 209 213 217 219 223 226 231 239 244 246 249 254 256 258 261 265 270 274 277 279 276 276 276 275 276 276 275 275 274 276 280 282 283 284 282 281 283 283 283 283 283
205 206 210 213 215 217 220 222 227 232 238 242 244 248 256 259 261 263 266 269 274 279 282 281 278 277 277 281 282 282 281 280 281 282 283 285 286 287 284 282 281 283 283 283
206 209 214 215 217 220 221 222 226 233 239 243 248 251 256 266 269 269 269 272 277 279 281 281 280 282 284 285 285 287 288 287 285 284 285 286 286 286 284 283 282 283 284 284
204 208 212 216 218 217 215 221 229 235 239 247 255 258 265 270 277 275 275 277 281 283 281 281 282 280 281 283 287 290 289 289 288 286 285 286 285 284 284 283 283 284 285 285
207 209 211 214 216 218 219 225 230 238 245 253 261 264 270 271 278 285 283 280 278 282 284 284 283 282 283 285 288 291 290 289 289 288 286 284 283 282 283 283 284 284 284 285
210 212 211 212 215 219 223 229 235 242 250 257 264 266 269 275 279 283 283 278 275 277 282 285 285 283 284 285 286 287 288 289 289 288 287 284 283 284 284 284 284 285 285 285
209 212 213 215 218 223 229 234 240 246 252 259 265 266 266 276 281 283 281 275 276 278 281 284 285 284 284 285 286 286 287 289 289 287 286 285 285 285 285 286 286 286 286 285
213 212 214 217 223 229 233 236 242 250 257 263 266 268 271 273 279 282 282 280 283 284 284 285 285 284 287 286 285 284 285 286 287 287 287 287 286 285 285 286 287 287 286 285
215 214 216 219 223 229 234 239 246 253 260 265 265 272 276 276 279 283 284 286 288 288 288 285 283 283 287 288 286 283 282 283 285 286 286 287 287 286 286 285 285 286 286 286
218 217 220 224 228 232 238 241 246 253 261 266 270 273 277 281 283 286 288 290 293 295 294 290 286 287 286 288 286 284 284 284 286 287 287 288 287 286 286 286 287 288 287 286
221 224 225 230 235 239 240 245 251 257 264 268 272 277 280 283 288 289 289 292 295 297 298 294 291 290 291 291 288 285 284 286 287 287 286 285 286 288 287 287 288 289 288 287
226 228 230 231 237 242 244 251 256 260 265 269 274 281 283 284 288 291 292 294 296 297 298 299 295 293 293 293 291 290 289 288 289 289 288 287 287 289 290 289 289 289 289 289
229 232 232 232 235 241 246 254 262 267 267 269 274 279 283 286 289 291 293 295 297 298 298 299 298 295 295 294 292 292 292 290 290 289 287 286 287 288 289 290 291 291 291 291
231 233 235 238 242 246 251 254 259 266 267 268 273 279 283 285 287 291 294 297 299 299 300 300 299 296 296 295 295 295 295 293 291 290 289 288 289 291 291 292 293 294 293 293
231 233 235 238 243 248 253 258 263 265 269 270 275 280 284 286 288 292 295 298 300 301 301 301 302 299 297 297 296 297 297 295 293 292 292 292 293 295 295 295 295 297 297 296
227 235 241 243 247 251 255 262 269 271 273 276 278 282 286 288 290 293 297 301 302 303 302 302 304 301 298 297 298 298 298 297 295 295 295 295 296 298 299 298 298 299 299 300
236 246 246 247 247 247 253 264 272 276 277 279 281 284 284 287 291 293 297 302 304 304 304 303 303 301 302 300 299 300 300 299 298 296 295 298 301 303 305 303 303 304 304 304
243 248 250 250 250 254 268 270 276 280 282 284 285 288 291 293 295 296 297 300 305 307 307 305 304 304 302 304 304 304 301 301 301 300 300 302 305 308 309 307 308 310 311 312
240 249 253 258 263 269 276 283 284 288 291 292 294 295 296 297 297 299 301 302 306 305 305 304 305 304 302 303 304 305 306 304 303 304 304 305 307 310 310 309 312 317 319 319
240 247 251 259 266 276 283 288 290 292 294 297 300 301 299 299 301 303 305 305 306 307 308 307 305 303 305 307 308 309 309 309 309 310 311 312 313 315 314 315 319 321 322 323
242 249 256 261 267 280 288 292 298 298 301 302 303 305 305 306 307 306 306 308 309 312 312 311 310 306 307 314 315 312 311 316 319 316 314 318 322 324 326 330 329 327 328 329
247 253 261 271 276 284 293 298 301 302 303 306 306 307 308 310 310 310 310 312 315 317 317 316 314 311 311 316 321 319 319 319 323 325 328 330 334 339 344 348 350 350 350 352
263 264 273 280 285 290 296 299 301 307 311 312 312 310 311 312 312 312 315 317 320 326 327 324 327 324 322 325 329 331 332 335 341 344 343 342 348 354 359 4 8 12 17 22
276 279 281 284 288 293 297 301 306 313 318 321 320 317 316 318 318 318 320 325 329 334 337 332 335 340 343 343 345 348 354 360 2 1 2 8 12 15 19 25 29 31 36 41
287 289 290 292 294 294 298 304 309 317 324 328 328 326 326 330 331 331 335 337 342 352 356 356 358 2 4 9 9 13 17 19 21 23 28 33 34 36 39 43 47 48 49 56
297 303 302 303 306 304 306 306 311 319 325 331 337 341 341 344 346 349 357 360 4 11 18 33 43 35 29 27 30 33 34 36 37 42 47 47 48 49 51 55 55 55 59 65
Height
5816 5820 5822 5825 5827 5830 5833 5835 5837 5838 5839 5841 5843 5844 5845 5846 5847 5847 5848 5848 5847 5847 5845 5845 5845 5845 5845 5845 5845 5844 5844 5844 5844 5844 5844 5843 5842 5841 5841 5839 5838 5837 5836 5835
5815 5818 5821 5823 5826 5828 5831 5833 5835 5836 5838 5840 5841 5842 5842 5843 5844 5845 5845 5844 5844 5843 5842 5842 5842 5842 5842 5841 5841 5840 5840 5840 5839 5839 5838 5837 5836 5836 5835 5834 5833 5831 5830 5829
5814 5818 5819 5822 5824 5827 5829 5832 5833 5835 5836 5837 5839 5840 5841 5841 5841 5842 5841 5841 5841 5840 5839 5839 5838 5838 5838 5838 5837 5837 5836 5835 5834 5833 5832 5831 5830 5829 5829 5828 5826 5825 5824 5822
5812 5815 5818 5821 5823 5826 5828 5830 5831 5833 5834 5836 5837 5838 5839 5838 5839 5838 5838 5837 5837 5837 5836 5835 5835 5834 5834 5834 5833 5832 5831 5830 5829 5827 5826 5825 5824 5823 5822 5821 5819 5818 5816 5815
5811 5814 5817 5820 5822 5824 5827 5828 5830 5831 5832 5834 5834 5835 5837 5836 5836 5835 5834 5834 5834 5834 5833 5832 5831 5831 5830 5829 5828 5827 5826 5824 5822 5821 5819 5819 5818 5817 5815 5814 5812 5811 5809 5808
5810 5813 5815 5818 5820 5822 5824 5826 5828 5829 5830 5832 5833 5833 5834 5833 5833 5832 5831 5831 5831 5830 5830 5829 5828 5827 5826 5825 5823 5822 5820 5818 5816 5814 5813 5812 5811 5809 5808 5807 5806 5804 5802 5800
5808 5811 5814 5816 5818 5820 5822 5825 5826 5827 5827 5829 5830 5830 5832 5831 5830 5829 5828 5828 5827 5827 5826 5825 5824 5822 5821 5819 5818 5816 5815 5813 5811 5809 5807 5805 5804 5802 5801 5800 5798 5797 5795 5793
5807 5810 5812 5814 5817 5818 5820 5822 5824 5825 5825 5826 5826 5827 5829 5828 5827 5826 5825 5824 5823 5823 5821 5820 5818 5817 5815 5814 5812 5810 5808 5806 5804 5802 5801 5799 5797 5796 5794 5792 5791 5789 5787 5785
5805 5808 5810 5812 5814 5816 5817 5819 5821 5822 5822 5823 5823 5824 5825 5824 5824 5823 5822 5821 5820 5818 5817 5815 5813 5811 5810 5808 5806 5804 5801 5799 5797 5796 5794 5792 5790 5788 5786 5784 5783 5781 5779 5777
5803 5805 5808 5809 5812 5813 5815 5816 5818 5818 5819 5819 5820 5821 5822 5821 5820 5820 5819 5817 5816 5814 5812 5810 5808 5806 5804 5802 5799 5797 5794 5792 5790 5788 5786 5784 5782 5780 5778 5776 5775 5772 5770 5769
5800 5803 5805 5807 5808 5810 5812 5814 5814 5815 5816 5816 5816 5819 5818 5817 5816 5815 5815 5813 5811 5809 5807 5805 5803 5800 5797 5795 5792 5790 5788 5785 5783 5781 5778 5777 5774 5772 5770 5768 5766 5764 5762 5761
5798 5800 5802 5804 5806 5807 5809 5810 5811 5812 5812 5812 5813 5816 5814 5813 5812 5811 5810 5808 5806 5804 5802 5800 5797 5794 5791 5789 5786 5783 5781 5778 5775 5773 5771 5769 5767 5764 5762 5760 5758 5756 5754 5753
5796 5798 5799 5801 5804 5805 5805 5807 5807 5808 5808 5808 5809 5812 5809 5808 5808 5807 5805 5803 5801 5799 5797 5794 5791 5788 5785 5782 5779 5776 5773 5770 5768 5766 5764 5762 5759 5757 5755 5753 5751 5749 5747 5745
5794 5795 5797 5799 5800 5801 5802 5803 5804 5804 5804 5804 5805 5805 5805 5804 5803 5802 5800 5798 5796 5793 5791 5788 5785 5782 5779 5776 5773 5770 5767 5764 5761 5759 5757 5755 5752 5750 5748 5746 5744 5742 5740 5739
5792 5793 5794 5795 5797 5798 5799 5800 5801 5801 5801 5801 5801 5801 5801 5799 5798 5797 5795 5793 5790 5788 5785 5782 5779 5776 5773 5770 5767 5764 5761 5758 5755 5753 5751 5749 5746 5744 5742 5740 5738 5736 5735 5733
5790 5791 5792 5793 5795 5796 5797 5798 5798 5798 5798 5798 5797 5797 5796 5795 5793 5792 5790 5787 5785 5782 5779 5776 5773 5770 5767 5764 5761 5758 5756 5753 5750 5748 5746 5744 5742 5739 5737 5735 5734 5732 5730 5729
5789 5790 5791 5792 5793 5794 5795 5796 5796 5796 5795 5795 5794 5794 5792 5791 5789 5787 5785 5782 5779 5776 5773 5770 5767 5764 5762 5759 5756 5754 5751 5748 5746 5744 5742 5740 5738 5736 5733 5732 5730 5728 5726 5724
5789 5790 5790 5791 5792 5793 5796 5794 5794 5793 5792 5792 5790 5789 5788 5786 5784 5782 5780 5777 5774 5771 5768 5765 5762 5760 5757 5755 5752 5749 5747 5745 5742 5740 5738 5736 5734 5732 5730 5728 5727 5725 5723 5721
5788 5789 5789 5789 5790 5791 5792 5792 5791 5790 5790 5788 5787 5786 5784 5782 5780 5778 5775 5772 5769 5766 5763 5761 5758 5756 5753 5751 5748 5746 5744 5741 5739 5737 5735 5734 5732 5730 5728 5726 5724 5722 5720 5719
5787 5788 5788 5788 5788 5789 5791 5789 5788 5789 5787 5785 5783 5782 5780 5778 5776 5774 5771 5768 5765 5762 5759 5756 5754 5752 5750 5747 5745 5743 5741 5738 5736 5735 5733 5731 5729 5727 5725 5723 5722 5720 5718 5717
5786 5786 5786 5786 5786 5787 5787 5787 5786 5787 5785 5782 5780 5778 5776 5774 5772 5770 5766 5764 5761 5758 5755 5753 5750 5748 5746 5744 5742 5740 5738 5736 5735 5733 5731 5729 5727 5726 5724 5722 5720 5718 5717 5715
5784 5784 5784 5784 5784 5787 5785 5784 5784 5783 5781 5779 5776 5774 5772 5770 5768 5765 5763 5760 5757 5755 5752 5750 5748 5746 5744 5742 5741 5738 5737 5735 5733 5731 5729 5728 5726 5725 5723 5721 5719 5718 5716 5715
5782 5783 5783 5783 5784 5783 5782 5781 5781 5779 5777 5775 5773 5771 5769 5767 5764 5762 5759 5756 5754 5752 5749 5747 5746 5744 5743 5741 5740 5738 5736 5734 5732 5731 5729 5728 5726 5725 5723 5721 5719 5718 5717 5715
5781 5781 5781 5781 5780 5780 5779 5778 5778 5776 5774 5772 5770 5768 5766 5763 5761 5758 5756 5754 5752 5750 5748 5746 5745 5743 5742 5741 5739 5737 5736 5734 5732 5731 5730 5728 5727 5725 5723 5722 5721 5719 5718 5717
5780 5779 5779 5779 5778 5778 5777 5776 5775 5773 5772 5770 5768 5766 5763 5761 5758 5756 5754 5752 5750 5749 5747 5745 5744 5743 5742 5741 5739 5737 5736 5734 5733 5732 5730 5729 5728 5726 5725 5724 5722 5721 5720 5719
5779 5779 5778 5778 5777 5776 5775 5774 5773 5771 5770 5768 5766 5764 5761 5759 5757 5755 5753 5751 5750 5748 5747 5746 5745 5744 5743 5741 5740 5738 5737 5736 5735 5733 5732 5731 5730 5728 5727 5726 5725 5724 5723 5722